STAR ONE C1 1 32293U 07056A 21062.53006382 -.00000285 00000-0 00000-0 0 9991 2 32293 0.0532 290.7576 0002752 66.7221 289.8326 1.00270767 32404 SKYNET 5B 1 32294U 07056B 21062.85188593 .00000132 00000-0 00000-0 0 9992 2 32294 0.3664 86.1778 0004224 263.0401 144.3671 1.00274499 48831 ARIANE 5 R/B 1 32295U 07056C 21062.24799896 .00003187 00000-0 61576-3 0 9991 2 32295 5.9110 141.5200 6993805 260.5503 20.8945 2.65618383119857